www.pogodaiklimat.ru

Погода и климат >> Архив погоды >> Австралия >> Западная Австралия >> Остров Брауз


ПОГОДА на Острове Брауз

  • Прогноз погоды на Острове Брауз
  • Монитор погоды на Острове Брауз

АРХИВ ПОГОДЫ на Острове Брауз

Время (UTC), дата Ветер
(напр.,м/с)
 
Видим.   Явления Облачность Т
(С)
Тd
(С)
f
(%)
Тe
(С)
Тes
(С)
Комфортность P
(гПа)
Po
(гПа)
Тmin
(С)
Tmax
(С)
R
(мм)
R24
(мм)
S
(см)
04 12.02 З 6 н/о н/о +29.3 +24 +24 комфорт 1012.1 1011.6
05 12.02 З 5 н/о н/о +29.6 +25 +25 комфорт 1011.6 1011.1
06 12.02 З 4 н/о н/о +29.5 +24 +24 комфорт 1011.1 1010.6
07 12.02 З 4 н/о н/о +29.5 +24 +24 комфорт 1010.5 1010.0
08 12.02 З 6 н/о н/о +29.7 +25 +25 комфорт 1010.2 1009.7
09 12.02 З 6 н/о н/о +29.4 +24 +24 комфорт 1010.3 1009.8
10 12.02 З 6 н/о н/о +29.4 +24 +24 комфорт 1010.9 1010.4
11 12.02 З 6 н/о н/о +29.2 +24 +24 комфорт 1011.2 1010.7
12 12.02 З 5 н/о н/о +29.3 +24 +24 комфорт 1011.6 1011.1 +30.2
13 12.02 З 5 н/о н/о +29.1 +24 +24 комфорт 1012.1 1011.6
14 12.02 З 5 н/о н/о +29.1 +24 +24 комфорт 1012.2 1011.7
15 12.02 З 5 н/о н/о +29.1 +24 +24 комфорт 1012.3 1011.8
16 12.02 З 5 н/о н/о +28.8 +24 +24 комфорт 1012.1 1011.6
17 12.02 З 6 н/о н/о +28.9 +24 +24 комфорт 1011.8 1011.3
18 12.02 З 7 н/о н/о +28.9 +24 +24 комфорт 1011.3 1010.8
19 12.02 ЮЗ 6 н/о н/о +28.7 +24 +24 комфорт 1011.7 1011.2
20 12.02 З 7 н/о н/о +28.9 +24 +24 комфорт 1011.7 1011.2
21 12.02 З 6 н/о н/о +28.8 +24 +24 комфорт 1012.1 1011.6
22 12.02 З 5 н/о н/о +28.8 +24 +24 комфорт 1012.7 1012.2
23 12.02 З 4 н/о н/о +28.7 +24 +24 комфорт 1013.2 1012.7
00 13.02 З 4 н/о н/о +28.9 +24 +24 комфорт 1013.4 1012.9 +28.2
01 13.02 З 4 н/о н/о +29.0 +24 +24 комфорт 1013.3 1012.8
02 13.02 З 5 н/о н/о +29.4 +24 +24 комфорт 1013.1 1012.6
03 13.02 З 7 н/о н/о +29.3 +24 +24 комфорт 1012.7 1012.2
04 13.02 З 6 н/о н/о +29.6 +25 +25 комфорт 1012.1 1011.6
05 13.02 З 8 н/о н/о +29.3 +24 +24 комфорт 1011.3 1010.8
06 13.02 ЮЗ 6 н/о н/о +29.2 +24 +24 комфорт 1011.3 1010.8
07 13.02 ЮЗ 6 н/о н/о +29.3 +24 +24 комфорт 1010.9 1010.4
08 13.02 ЮЗ 6 н/о н/о +29.3 +24 +24 комфорт 1010.6 1010.1
09 13.02 ЮЗ 6 н/о н/о +29.2 +24 +24 комфорт 1010.9 1010.4
10 13.02 ЮЗ 6 н/о н/о +29.3 +24 +24 комфорт 1011.2 1010.7
11 13.02 ЮЗ 6 н/о н/о +29.0 +24 +24 комфорт 1011.7 1011.2
12 13.02 ЮЗ 6 н/о н/о +29.1 +24 +24 комфорт 1012.4 1011.9 +30.1
13 13.02 З 5 н/о н/о +29.2 +24 +24 комфорт 1012.8 1012.3 +30.2
14 13.02 З 6 н/о н/о +28.9 +24 +24 комфорт 1012.7 1012.2
15 13.02 З 6 н/о н/о +28.8 +24 +24 комфорт 1012.5 1012.0
16 13.02 З 6 н/о н/о +28.9 +24 +24 комфорт 1012.1 1011.6
17 13.02 З 7 н/о н/о +28.8 +24 +24 комфорт 1011.4 1010.9
18 13.02 З 8 н/о н/о +29.0 +24 +24 комфорт 1010.6 1010.1
19 13.02 З 8 н/о н/о +28.9 +24 +24 комфорт 1010.4 1009.9
21 13.02 З 10 н/о н/о +28.8 +24 +24 комфорт 1010.3 1009.8
22 13.02 З 8 н/о н/о +28.8 +24 +24 комфорт 1011.2 1010.7
00 14.02 З 6 н/о н/о +29.1 +24 +24 комфорт 1012.5 1012.0 +28.4
01 14.02 ЮЗ 7 н/о н/о +29.2 +24 +24 комфорт 1012.9 1012.4 +28.5
02 14.02 Ю 6 н/о н/о +29.3 +24 +24 комфорт 1012.8 1012.3
03 14.02 Ю 7 н/о н/о +29.3 +24 +24 комфорт 1012.3 1011.8
04 14.02 ЮЗ 6 н/о н/о +29.2 +24 +24 комфорт 1011.6 1011.1
05 14.02 ЮЗ 5 н/о н/о +29.2 +24 +24 комфорт 1010.9 1010.4
06 14.02 ЮЗ 5 н/о н/о +29.3 +24 +24 комфорт 1010.5 1010.0
07 14.02 ЮЗ 5 н/о н/о +29.4 +24 +24 комфорт 1010.4 1009.9
08 14.02 ЮЗ 7 н/о н/о +29.2 +24 +24 комфорт 1009.9 1009.4
09 14.02 ЮЗ 5 н/о н/о +29.0 +24 +24 комфорт 1010.2 1009.7
10 14.02 ЮЗ 6 н/о н/о +29.2 +24 +24 комфорт 1010.5 1010.0
11 14.02 ЮЗ 6 н/о н/о +29.0 +24 +24 комфорт 1010.9 1010.4
12 14.02 ЮЗ 7 н/о н/о +29.1 +24 +24 комфорт 1010.8 1010.3 +30.2
13 14.02 ЮЗ 7 н/о н/о +28.9 +24 +24 комфорт 1011.1 1010.6 +30.3
14 14.02 ЮЗ 7 н/о н/о +29.1 +24 +24 комфорт 1011.5 1011.0
15 14.02 ЮЗ 8 н/о н/о +28.8 +24 +24 комфорт 1011.1 1010.6
16 14.02 ЮЗ 8 н/о н/о +29.0 +24 +24 комфорт 1011.0 1010.5
17 14.02 ЮЗ 7 н/о н/о +28.8 +24 +24 комфорт 1010.9 1010.4
18 14.02 ЮЗ 7 н/о н/о +28.8 +24 +24 комфорт 1010.5 1010.0
19 14.02 З 7 н/о н/о +28.6 +24 +24 комфорт 1010.3 1009.8
20 14.02 З 7 н/о н/о +28.7 +24 +24 комфорт 1010.6 1010.1
21 14.02 З 7 н/о н/о +28.8 +24 +24 комфорт 1011.1 1010.6
22 14.02 З 6 н/о н/о +28.7 +24 +24 комфорт 1011.6 1011.1
23 14.02 ЮЗ 5 н/о н/о +28.7 +24 +24 комфорт 1012.1 1011.6
00 15.02 ЮЗ 6 н/о н/о +28.8 +24 +24 комфорт 1012.5 1012.0 +28.3
01 15.02 ЮЗ 6 н/о н/о +28.9 +24 +24 комфорт 1013.0 1012.5 +28.4
02 15.02 ЮЗ 6 н/о н/о +29.2 +24 +24 комфорт 1013.0 1012.5
03 15.02 ЮЗ 6 н/о н/о +29.1 +24 +24 комфорт 1012.5 1012.0
04 15.02 ЮЗ 5 н/о н/о +29.2 +24 +24 комфорт 1011.8 1011.3
05 15.02 ЮЗ 5 н/о н/о +29.3 +24 +24 комфорт 1011.0 1010.5
06 15.02 З 4 н/о н/о +29.4 +24 +24 комфорт 1010.3 1009.8
07 15.02 З 4 н/о н/о +29.3 +24 +24 комфорт 1009.8 1009.3
08 15.02 З 6 н/о н/о +29.2 +24 +24 комфорт 1009.1 1008.6
09 15.02 З 7 н/о н/о +29.1 +24 +24 комфорт 1008.8 1008.3
10 15.02 З 7 н/о н/о +29.3 +24 +24 комфорт 1010.0 1009.5
11 15.02 З 7 н/о н/о +29.1 +24 +24 комфорт 1010.9 1010.4
12 15.02 ЮЗ 6 н/о н/о +29.2 +24 +24 комфорт 1012.0 1011.5 +30.1
13 15.02 З 6 н/о н/о +29.3 +24 +24 комфорт 1012.5 1012.0 +30.2
14 15.02 З 5 н/о н/о +29.2 +24 +24 комфорт 1012.5 1012.0
15 15.02 З 7 н/о н/о +28.9 +24 +24 комфорт 1011.3 1010.8
16 15.02 З 6 н/о н/о +29.0 +24 +24 комфорт 1011.5 1011.0
17 15.02 З 4 н/о н/о +28.8 +24 +24 комфорт 1011.1 1010.6
18 15.02 З 6 н/о н/о +28.9 +24 +24 комфорт 1010.2 1009.7
19 15.02 З 4 н/о н/о +28.8 +24 +24 комфорт 1010.0 1009.5
20 15.02 З 4 н/о н/о +28.6 +24 +24 комфорт 1010.5 1010.0
21 15.02 З 4 н/о н/о +28.7 +24 +24 комфорт 1010.7 1010.2
22 15.02 З 4 н/о н/о +28.7 +24 +24 комфорт 1011.1 1010.6
23 15.02 З 3 н/о н/о +28.8 +24 +24 комфорт 1011.8 1011.3
00 16.02 штиль 0 н/о н/о +28.9 +24 +24 комфорт 1012.3 1011.8 +28.5
01 16.02 З 2 н/о н/о +29.3 +24 +24 комфорт 1012.7 1012.2 +28.6
02 16.02 З 3 н/о н/о +29.5 +24 +24 комфорт 1012.3 1011.8
03 16.02 ЮЗ 3 н/о н/о +29.6 +25 +25 комфорт 1011.9 1011.4
04 16.02 ЮЗ 3 н/о н/о +30.0 +25 +25 комфорт 1011.3 1010.8
05 16.02 штиль 0 н/о н/о +30.1 +25 +25 комфорт 1010.7 1010.2
06 16.02 штиль 0 н/о н/о +30.0 +25 +25 комфорт 1010.0 1009.5
07 16.02 З 3 н/о н/о +29.7 +25 +25 комфорт 1009.5 1009.0
08 16.02 СЗ 4 н/о н/о +29.8 +25 +25 комфорт 1009.0 1008.5
09 16.02 СЗ 5 н/о н/о +29.7 +25 +25 комфорт 1008.4 1007.9
10 16.02 СЗ 5 н/о н/о +29.4 +24 +24 комфорт 1009.1 1008.6
11 16.02 СЗ 5 н/о н/о +29.5 +24 +24 комфорт 1009.9 1009.4
12 16.02 СЗ 4 н/о н/о +29.5 +24 +24 комфорт 1011.3 1010.8 +31.0
13 16.02 СЗ 4 н/о н/о +29.5 +24 +24 комфорт 1011.8 1011.3 +31.1
14 16.02 СЗ 3 н/о н/о +29.4 +24 +24 комфорт 1011.7 1011.2
15 16.02 штиль 0 н/о н/о +29.2 +24 +24 комфорт 1011.8 1011.3
16 16.02 штиль 0 н/о н/о +29.1 +24 +24 комфорт 1011.7 1011.2
17 16.02 З 4 н/о н/о +29.0 +24 +24 комфорт 1010.3 1009.8
18 16.02 СЗ 5 н/о н/о +28.9 +24 +24 комфорт 1010.0 1009.5
19 16.02 СЗ 6 н/о н/о +28.7 +24 +24 комфорт 1010.0 1009.5
20 16.02 З 6 н/о н/о +28.9 +24 +24 комфорт 1010.0 1009.5
21 16.02 СЗ 6 н/о н/о +29.0 +24 +24 комфорт 1009.8 1009.3
22 16.02 З 6 н/о н/о +29.0 +24 +24 комфорт 1010.5 1010.0
23 16.02 З 6 н/о н/о +29.1 +24 +24 комфорт 1010.7 1010.2
00 17.02 З 6 н/о н/о +29.2 +24 +24 комфорт 1011.1 1010.6 +28.7
01 17.02 СЗ 5 н/о н/о +29.4 +24 +24 комфорт 1011.0 1010.5 +28.8
02 17.02 СЗ 5 н/о н/о +29.7 +25 +25 комфорт 1011.1 1010.6
03 17.02 СЗ 4 н/о н/о +29.8 +25 +25 комфорт 1011.2 1010.7
04 17.02 СЗ 4 н/о н/о +29.7 +25 +25 комфорт 1010.6 1010.1
06 17.02 СЗ 4 н/о н/о +29.7 +25 +25 комфорт 1009.4 1008.9
07 17.02 З 5 н/о н/о +29.7 +25 +25 комфорт 1008.9 1008.4
08 17.02 З 6 н/о н/о +29.7 +25 +25 комфорт 1008.5 1008.0
09 17.02 З 7 н/о н/о +29.8 +25 +25 комфорт 1008.4 1007.9
10 17.02 З 7 н/о н/о +29.5 +24 +24 комфорт 1008.6 1008.1
11 17.02 З 7 н/о н/о +29.6 +25 +25 комфорт 1009.6 1009.1
12 17.02 З 6 н/о н/о +29.5 +24 +24 комфорт 1010.5 1010.0 +30.8
13 17.02 З 5 н/о н/о +29.5 +24 +24 комфорт 1011.4 1010.9 +30.9
14 17.02 З 5 н/о н/о +29.4 +24 +24 комфорт 1011.7 1011.2
15 17.02 З 5 н/о н/о +29.3 +24 +24 комфорт 1011.5 1011.0
16 17.02 ЮЗ 5 н/о н/о +29.2 +24 +24 комфорт 1010.9 1010.4
17 17.02 ЮЗ 5 н/о н/о +29.1 +24 +24 комфорт 1010.7 1010.2
18 17.02 ЮЗ 4 н/о н/о +28.9 +24 +24 комфорт 1010.2 1009.7
19 17.02 ЮЗ 4 н/о н/о +28.8 +24 +24 комфорт 1009.7 1009.2
20 17.02 З 4 н/о н/о +28.7 +24 +24 комфорт 1009.4 1008.9
21 17.02 З 3 н/о н/о +28.7 +24 +24 комфорт 1009.6 1009.1
22 17.02 СЗ 5 н/о н/о +28.6 +24 +24 комфорт 1009.7 1009.2
23 17.02 СЗ 6 н/о н/о +28.7 +24 +24 комфорт 1010.3 1009.8
00 18.02 З 5 н/о н/о +29.0 +24 +24 комфорт 1011.1 1010.6 +28.3
01 18.02 З 4 н/о н/о +29.1 +24 +24 комфорт 1011.4 1010.9 +28.4
02 18.02 З 6 н/о н/о +29.3 +24 +24 комфорт 1011.1 1010.6
03 18.02 З 7 н/о н/о +29.2 +24 +24 комфорт 1010.8 1010.3
04 18.02 З 7 н/о н/о +29.5 +24 +24 комфорт 1010.6 1010.1
05 18.02 З 6 н/о н/о +29.7 +25 +25 комфорт 1010.2 1009.7
06 18.02 З 6 н/о н/о +29.8 +25 +25 комфорт 1009.8 1009.3
07 18.02 З 6 н/о н/о +29.6 +25 +25 комфорт 1009.7 1009.2
08 18.02 З 7 н/о н/о +30.0 +25 +25 комфорт 1009.7 1009.2
09 18.02 З 6 н/о н/о +29.7 +25 +25 комфорт 1009.7 1009.2
10 18.02 З 6 н/о н/о +29.4 +24 +24 комфорт 1010.1 1009.6
11 18.02 З 5 н/о н/о +29.5 +24 +24 комфорт 1010.5 1010.0
12 18.02 З 5 н/о н/о +29.4 +24 +24 комфорт 1011.0 1010.5 +30.3
13 18.02 З 4 н/о н/о +29.4 +24 +24 комфорт 1011.7 1011.2 +30.4
14 18.02 З 5 н/о н/о +29.5 +24 +24 комфорт 1012.3 1011.8
15 18.02 З 5 н/о н/о +29.4 +24 +24 комфорт 1012.3 1011.8
16 18.02 З 3 н/о н/о +29.2 +24 +24 комфорт 1012.2 1011.7
17 18.02 ЮЗ 4 н/о н/о +29.1 +24 +24 комфорт 1011.7 1011.2
18 18.02 З 4 н/о н/о +29.2 +24 +24 комфорт 1010.9 1010.4
19 18.02 З 4 н/о н/о +29.0 +24 +24 комфорт 1010.1 1009.6
20 18.02 З 5 н/о н/о +28.8 +24 +24 комфорт 1010.3 1009.8
21 18.02 З 5 н/о н/о +28.8 +24 +24 комфорт 1010.3 1009.8
22 18.02 З 5 н/о н/о +28.8 +24 +24 комфорт 1010.7 1010.2
23 18.02 З 6 н/о н/о +28.8 +24 +24 комфорт 1011.0 1010.5
00 19.02 З 4 н/о н/о +29.2 +24 +24 комфорт 1012.2 1011.7 +28.5
01 19.02 З 4 н/о н/о +29.5 +24 +24 комфорт 1012.8 1012.3
02 19.02 З 5 н/о н/о +29.4 +24 +24 комфорт 1012.5 1012.0
04 19.02 З 5 н/о н/о +29.7 +25 +25 комфорт 1011.5 1011.0

 

Местоположение метеостанции Остров Брауз (Западная Австралия, Австралия): широта -14.11 долгота 123.55 высота над уровнем моря 5 м.

В архиве по умолчанию представлена погода на Острове Брауз за последнюю неделю. Архивные данные за месяц целиком и за предыдущие месяцы, начиная с января 2011 года, Вы можете получить, выбрав интересующий диапазон дат из раскрывающегося списка и нажав кнопку "Ввод!".


*Определитесь, кто Вы:
робот инопланетянин человек

Внимание! Время в таблицах - всемирное. Для получения местного времени необходимо прибавить поправку, которая равна 8 ч.

Смотрите также архив погоды в соседних городах и на ближайших метеорологических станциях:

Погода на Острове Адель (Западная Австралия, Австралия) (162 км)
Погода на Острове Троутон (Западная Австралия, Австралия) (284 км)
Погода в Трускотте (Западная Австралия, Австралия) (305 км)
Погода в Калумбуру (Западная Австралия, Австралия) (335 км)
Погода в Дерби (Северная территория, Австралия) (362 км)
Погода на Роти (Индонезия) (380 км)
Погода на Базе ВВС Curtin (Западная Австралия, Австралия) (387 км)
Погода в Купанге (Индонезия) (440 км)
Погода в Робак Запад (Западная Австралия, Австралия) (442 км)
Погода в Сабу (Индонезия) (443 км)

Пояснения к столбцам:

Ветер - указаны скорость ветра в м/с - средняя за 10 мин, порывы в срок и между сроками (в фигурных скобках) и направление, откуда дует ветер: С - северный, СВ - северо-восточный, В - восточный, ЮВ - юго-восточный, Ю - южный, ЮЗ - юго-западный, З - западный, СЗ - северо-западный.
Видимость - горизонтальная дальность видимости в метрах или километрах. При видимости от 1 до 10 км при отсутствии осадков обычно наблюдается дымка, при ухудшении видимости до 1 км и менее - туман. В сухую погоду видимость может ухудшаться дымом, пылью или мглою.
Явления - указаны атмосферные явления, наблюдавшиеся в срок или в последний час перед сроком; фигурными скобками обозначены явления, наблюдавшиеся между сроками (за 1-3 часа до срока); квадратными скобками обозначены град или гололедные отложения с указанием их диаметра в мм.
Облачность - указаны через наклонную черту общая и нижняя облачность в баллах и высота нижней границы облаков в метрах; квадратными скобками обозначены формы облаков: Ci - перистые, Cs - перисто-слоистые, Cc - перисто-кучевые, Ac - высококучевые, As - высокослоистые, Sc - слоисто-кучевые, Ns - слоисто-дождевые, Cu - кучевые, Cb - кучево-дождевые. Подробнее классификацию облаков см. в Атласе облаков (PDF).
T - Температура воздуха - температура, измеренная на высоте 2 м над землей.
Td - Температура точки росы - температура, при понижении до которой содержащийся в воздухе водяной пар достигнет насыщения.
f - Относительная влажность воздуха - влажноcть воздуха, измеренная на высоте 2 м над землей.
Te - Эффективная температура - температура, которую ощущает одетый по сезону человек в тени. Характеристика душности погоды. При расчете учитывается влияние влажности воздуха и скорости ветра на теплоощущения человека.
Tes - Эффективная температура на солнце - температура, которую ощущает человек, с поправкой на солнечный нагрев. Характеристика знойности погоды. Зависит от высоты солнца над горизонтом, облачности и скорости ветра. Ночью, в пасмурную погоду, а также при ветре 12 м/с и более поправка равна нулю.
P - Атмосферное давление - приведенное к уровню моря атмосферное давление.
Po - Атмосферное давление - измеренное на уровне метеостанции атмосферное давление.
Tmin - Минимальная температура - минимум температуры воздуха на высоте 2 м над землей.
Tmax - Максимальная температура - максимум температуры воздуха на высоте 2 м над землей.
R - Количество осадков - Количество выпавших осадков за период времени, мм. При наведении курсора мыши на число - период времени, за который выпало указанное количество осадков.
R24 - Количество осадков - Количество выпавших осадков за 24 часа, мм.
S - Снежный покров - Высота снежного покрова, см. При наведении курсора мыши на число - состояние снежного покрова и степень покрытия местности в баллах.